Weather History for GMME - September, 2012

Change the Weather History Date:

Friday, September 28, 2012

  Actual Average Record
Temperature  
Mean Temperature 68 °F -  
Max Temperature 73 °F 73 °F 82 °F (2005)
Min Temperature 62 °F 57 °F 55 °F (2010)
Cooling Degree Days 2    
Growing Degree Days 18 (Base 50)    
Moisture  
Dew Point 59 °F    
Average Humidity 75    
Maximum Humidity 94    
Minimum Humidity 48    
Precipitation  
Precipitation 0.24 in 0.05 in - ()
Sea Level Pressure  
Sea Level Pressure 29.91 in    
Wind  
Wind Speed 10 mph ()    
Max Wind Speed 22 mph    
Max Gust Speed 32 mph    
Visibility 4.1 miles    
Events Rain , Thunderstorm    
Averages and records for this station are not official NWS values.
T = Trace of Precipitation, MM = Missing Value Source: Averaged Metar Reports

Daily Weather History Graph

Daily Weather History Graph

Search for Another Location

Airport or City:

Trip Planner

Search our weather history database for the weather conditions in past years. The results will help you decide how hot, cold, wet, or windy it might be!

Date:

Astronomy

Sep. 28, 2012 Rise Set
Actual Time 7:19 AM WEST 7:15 PM WEST
Civil Twilight 6:54 AM WEST 7:39 PM WEST
Nautical Twilight 6:25 AM WEST 8:08 PM WEST
Astronomical Twilight 5:56 AM WEST 8:38 PM WEST
Moon 6:08 PM WEST (9/28) 5:38 AM WEST (9/28)
Length of Visible Light 12h 45m
Length of Day
11h 55m
Waxing Gibbous, 97% of the Moon is Illuminated
Sep 28
Waxing Gibbous
Sep 30
Full
Oct 8
Last Quarter
Oct 15
New
Oct 22
First Quarter

Hourly Weather History & Observations

Time (WEST) Temp. Dew Point Humidity Pressure Visibility Wind Dir Wind Speed Gust Speed Precip Events Conditions
12:00 AM 66.2 °F 64.4 °F 94% 29.86 in 3.1 mi Calm Calm - N/A   Mostly Cloudy
12:30 AM 66.2 °F 64.4 °F 94% 29.89 in 3.1 mi South 3.5 mph - N/A   Mostly Cloudy
1:00 AM 67 °F 64 °F 89% 29.88 in 3 mi South 5.8 mph - - Rain Light Rain Showers
1:00 AM 66.2 °F 64.4 °F 94% 29.89 in 3.1 mi South 5.8 mph - N/A   Mostly Cloudy
1:30 AM 66.2 °F 64.4 °F 94% 29.86 in 3.1 mi Calm Calm - N/A   Mostly Cloudy
2:00 AM 66.2 °F 62.6 °F 88% 29.86 in 3.1 mi Calm Calm - N/A   Mostly Cloudy
2:30 AM 66.2 °F 62.6 °F 88% 29.86 in 3.1 mi SSW 9.2 mph - N/A   Mostly Cloudy
3:00 AM 66.2 °F 62.6 °F 88% 29.86 in - SSW 10.4 mph - N/A   Unknown
3:30 AM 66.2 °F 62.6 °F 88% 29.83 in - SSW 5.8 mph - N/A   Unknown
4:00 AM 66 °F 63 °F 86% 29.84 in 3 mi SSW 9.2 mph - - Rain Light Rain Showers
4:00 AM 66.2 °F 62.6 °F 88% 29.83 in - SSW 10.4 mph - N/A   Unknown
4:30 AM 66.2 °F 62.6 °F 88% 29.86 in 3.1 mi SSW 10.4 mph - N/A   Mostly Cloudy
5:00 AM 64.4 °F 62.6 °F 94% 29.83 in 3.1 mi South 6.9 mph - N/A Rain Rain Showers
5:30 AM 66.2 °F 62.6 °F 88% 29.86 in 3.1 mi South 11.5 mph - N/A Rain Rain Showers
6:00 AM 66.2 °F 60.8 °F 83% 29.86 in 3.1 mi SSW 11.5 mph - N/A   Mostly Cloudy
6:30 AM 64.4 °F 60.8 °F 88% 29.86 in 3.1 mi SSW 8.1 mph - N/A   Mostly Cloudy
6:48 AM 64.4 °F 59.0 °F 83% 29.86 in 3.1 mi SSW 8.1 mph - N/A Thunderstorm Thunderstorm
6:49 AM 64.4 °F 59.0 °F 83% 29.86 in 3.1 mi SSW 8.1 mph - N/A Thunderstorm Thunderstorm
7:00 AM 64 °F 60 °F 81% 29.88 in 3 mi SSW 8.1 mph - - Thunderstorm Thunderstorm
7:00 AM 64.4 °F 59.0 °F 83% 29.86 in 3.1 mi SSW 8.1 mph - N/A Thunderstorm Thunderstorm
7:30 AM 64.4 °F 57.2 °F 77% 29.86 in 3.1 mi SSW 13.8 mph - N/A Thunderstorm Thunderstorm
8:00 AM 64.4 °F 59.0 °F 83% 29.89 in 3.1 mi SSW 9.2 mph - N/A Thunderstorm Thunderstorm
8:30 AM 62.6 °F 57.2 °F 82% 29.89 in 3.1 mi SSW 10.4 mph - N/A Thunderstorm Thunderstorm
9:00 AM 64.4 °F 55.4 °F 73% 29.92 in 3.1 mi SSW 10.4 mph - N/A Thunderstorm Thunderstorm
10:00 AM 66 °F 59 °F 72% 29.94 in 3 mi SW 16.1 mph - - Thunderstorm Thunderstorm
10:00 AM 66.2 °F 59.0 °F 78% 29.92 in 3.1 mi SW 16.1 mph - N/A Thunderstorm Thunderstorm
10:30 AM 68.0 °F 57.2 °F 68% 29.92 in 3.1 mi SW 17.3 mph - N/A Thunderstorm Thunderstorm
11:00 AM 69.8 °F 60.8 °F 73% 29.95 in 3.1 mi SW 18.4 mph - N/A Thunderstorm Thunderstorm
11:30 AM 71.6 °F 57.2 °F 60% 29.95 in - SW 15.0 mph - N/A   Unknown
11:46 AM 71.6 °F 55.4 °F 57% 29.95 in 5.0 mi WSW 18.4 mph - N/A   Scattered Clouds
12:00 PM 73.4 °F 57.2 °F 57% 29.95 in 5.0 mi SW 18.4 mph - N/A   Scattered Clouds
12:30 PM 71.6 °F 53.6 °F 53% 29.95 in 5.0 mi WSW 20.7 mph 32.2 mph N/A   Scattered Clouds
1:00 PM 72 °F 56 °F 48% 29.94 in 5 mi WSW 21.9 mph - -   Mostly Cloudy
1:00 PM 71.6 °F 57.2 °F 60% 29.95 in 5.0 mi WSW 21.9 mph - N/A   Scattered Clouds
2:00 PM 71.6 °F 57.2 °F 60% 29.92 in 5.0 mi West 20.7 mph - N/A   Scattered Clouds
2:30 PM 71.6 °F 57.2 °F 60% 29.92 in 5.0 mi WSW 19.6 mph - N/A   Scattered Clouds
3:00 PM 71.6 °F 53.6 °F 53% 29.92 in 5.0 mi WSW 20.7 mph - N/A   Scattered Clouds
4:00 PM 71 °F 56 °F 49% 29.93 in 6 mi WSW 20.7 mph - -   Mostly Cloudy
4:00 PM 71.6 °F 55.4 °F 57% 29.92 in 6.2 mi WSW 20.7 mph - N/A   Mostly Cloudy
4:30 PM 69.8 °F 57.2 °F 64% 29.92 in 6.2 mi WSW 19.6 mph - N/A   Mostly Cloudy
5:00 PM 69.8 °F 57.2 °F 64% 29.92 in 6.2 mi WSW 20.7 mph - N/A   Mostly Cloudy
5:30 PM 71.6 °F 57.2 °F 60% 29.92 in 6.2 mi West 17.3 mph - N/A   Scattered Clouds
6:00 PM 69.8 °F 57.2 °F 64% 29.92 in 6.2 mi WSW 20.7 mph - N/A   Scattered Clouds
6:30 PM 68.0 °F 59.0 °F 73% 29.92 in 6.2 mi WSW 19.6 mph - N/A   Scattered Clouds
7:00 PM 69 °F 59 °F 62% 29.94 in 6 mi WSW 19.6 mph - -  
7:00 PM 68.0 °F 59.0 °F 73% 29.92 in 6.2 mi WSW 19.6 mph - N/A   Scattered Clouds
7:30 PM 68.0 °F 59.0 °F 73% 29.95 in 5.0 mi WSW 19.6 mph - N/A   Partly Cloudy
8:00 PM 68.0 °F 57.2 °F 68% 29.95 in 3.7 mi SW 19.6 mph - N/A   Scattered Clouds
8:30 PM 68.0 °F 55.4 °F 64% 29.95 in 3.7 mi SW 15.0 mph - N/A   Partly Cloudy
9:00 PM 66.2 °F 55.4 °F 68% 29.95 in 3.7 mi SSW 15.0 mph - N/A   Partly Cloudy
9:30 PM 66.2 °F 57.2 °F 73% 29.98 in 3.7 mi SW 13.8 mph - N/A   Partly Cloudy
9:34 PM 66.2 °F 57.2 °F 73% 29.95 in 3.7 mi SSW 13.8 mph - N/A Thunderstorm Thunderstorm
10:00 PM 66 °F 58 °F 67% 29.98 in 4 mi SSW 16.1 mph - -   Mostly Cloudy
10:00 PM 66.2 °F 57.2 °F 73% 29.98 in 3.7 mi SSW 16.1 mph - N/A Thunderstorm Thunderstorm
10:30 PM 64.4 °F 59.0 °F 83% 29.98 in 3.7 mi SSW 15.0 mph - N/A Thunderstorm Thunderstorm
11:00 PM 64.4 °F 59.0 °F 83% 29.98 in 3.7 mi SSW 17.3 mph - N/A Thunderstorm Thunderstorm
11:30 PM 64.4 °F 59.0 °F 83% 29.98 in 3.7 mi SW 13.8 mph - N/A Rain , Thunderstorm Light Thunderstorms and Rain